DW9456 Weather Reports


time (UTC)temp
C
wind
direction
speed
KPH
gust
KPH
rain 1hr
cm
rain 24hr
cm
rain mn
cm
humidity
%
barometer
mb
20260509064527 12 236 6.4 11.3 0.00 0.30 0.30 97 1010.4
20260509064025 12 231 8.0 11.3 0.00 0.30 0.30 97 1010.2
20260509063520 12 245 4.8 11.3 0.13 0.30 0.30 97 1010.3
20260509063018 12 234 8.0 12.9 0.13 0.30 0.30 97 1010.2
20260509062515 12 254 11.3 12.9 0.00 0.28 0.28 97 1010.2
20260509062012 12 249 9.7 12.9 0.18 0.28 0.28 97 1010.4
20260509061509 12 270 8.0 9.7 0.13 0.25 0.25 97 1010.1
20260509061007 12 271 0.0 8.0 0.13 0.25 0.25 97 1010.1
20260509060504 12 240 0.0 0.0 0.00 0.23 0.23 97 1010.2
20260509055959 12 289 11.3 17.7 0.18 0.23 0.23 97 1010.3
20260509055455 12 305 0.0 0.0 0.13 0.20 0.20 97 1010.4
20260509054951 12 330 0.0 0.0 0.13 0.20 0.20 97 1010.3
20260509054448 12 314 0.0 0.0 0.18 0.18 0.18 96 1010.3
20260509053946 12 337 0.0 0.0 0.18 0.18 0.18 96 1010.3
20260509053444 12 310 0.0 0.0 0.13 0.15 0.15 96 1010.1
20260509052941 12 328 0.0 0.0 0.13 0.15 0.15 96 1010.3
20260509052438 12 314 0.0 0.0 0.00 0.13 0.13 95 1010.0
20260509051936 12 350 0.0 0.0 0.18 0.13 0.13 95 1010.4
20260509051434 12 321 0.0 0.0 0.18 0.10 0.10 95 1010.7
20260509050931 12 312 0.0 0.0 0.30 0.10 0.10 95 1010.8
20260509050427 12 313 0.0 0.0 0.18 0.05 0.05 94 1010.4
20260509045924 12 314 0.0 0.0 0.18 0.05 0.05 94 1010.5
20260509045421 12 323 0.0 0.0 0.00 0.03 0.03 94 1010.4
20260509044918 12 306 0.0 0.0 0.13 0.03 0.03 94 1010.6
20260509044416 12 323 0.0 0.0 0.13 0.03 0.03 94 1010.6
20260509043913 12 327 0.0 0.0 0.00 0.00 0.00 93 1010.5
20260509043408 12 321 0.0 0.0 0.00 0.00 0.00 93 1010.6
20260509042904 12 327 0.0 0.0 0.00 0.00 0.00 93 1010.6
20260509042401 12 322 0.0 0.0 0.00 0.00 0.00 93 1010.7
20260509041858 12 311 0.0 0.0 0.00 0.00 0.00 93 1010.4
20260509041354 12 322 0.0 0.0 0.00 0.00 0.00 92 1010.8
20260509040853 12 317 0.0 0.0 0.00 0.00 0.00 92 1010.7
20260509040350 12 313 0.0 0.0 0.18 0.00 0.00 92 1010.7
20260509035841 12 326 0.0 0.0 0.18 0.15 0.15 92 1011.0
20260509035338 12 337 0.0 0.0 0.00 0.13 0.13 92 1010.9
20260509034834 12 352 0.0 0.0 0.00 0.13 0.13 92 1011.0
20260509034333 12 347 0.0 0.0 0.00 0.13 0.13 92 1010.9
20260509033829 12 337 0.0 0.0 0.00 0.13 0.13 91 1010.9
20260509033326 12 334 0.0 0.0 0.13 0.13 0.13 91 1011.0
20260509032823 12 330 0.0 0.0 0.13 0.13 0.13 91 1010.9
20260509032320 12 330 0.0 0.0 0.18 0.10 0.10 91 1011.0
20260509031818 12 321 0.0 0.0 0.30 0.10 0.10 91 1010.9
20260509031315 12 305 0.0 0.0 0.13 0.08 0.08 91 1011.0
20260509030813 12 294 0.0 0.0 0.00 0.05 0.05 90 1011.1
20260509030311 12 314 0.0 0.0 0.00 0.05 0.05 90 1011.1
20260509025807 12 318 0.0 0.0 0.00 0.05 0.05 90 1010.9
20260509025306 12 310 0.0 0.0 0.00 0.05 0.05 90 1011.2
20260509024758 12 283 0.0 0.0 0.00 0.05 0.05 90 1011.3
20260509024255 12 318 0.0 0.0 0.00 0.05 0.05 89 1011.1
20260509023752 12 328 0.0 0.0 0.00 0.05 0.05 89 1011.4
20260509023249 12 317 0.0 0.0 0.00 0.05 0.05 89 1011.2
20260509022745 12 333 0.0 0.0 0.00 0.05 0.05 89 1011.4
20260509022243 12 333 0.0 0.0 0.00 0.05 0.05 88 1011.4
20260509021739 12 331 0.0 0.0 0.18 0.05 0.05 88 1011.5
20260509021237 12 320 0.0 0.0 0.00 0.03 0.03 87 1011.4
20260509020734 12 311 0.0 0.0 0.00 0.03 0.03 87 1011.3
20260509020232 12 334 0.0 0.0 0.00 0.03 0.03 87 1011.5
20260509015730 12 284 0.0 0.0 0.00 0.03 0.03 86 1011.6
20260509015228 12 287 0.0 0.0 0.00 0.03 0.03 86 1011.3
20260509014724 12 321 0.0 0.0 0.00 0.03 0.03 86 1011.0
20260509014221 12 347 0.0 0.0 0.00 0.03 0.03 86 1010.7
20260509013718 13 2 0.0 0.0 0.00 0.03 0.03 86 1010.4
20260509013213 13 38 0.0 0.0 0.00 0.03 0.03 85 1010.2
20260509012710 13 341 0.0 0.0 0.00 0.03 0.03 84 1010.3
20260509012207 13 349 0.0 0.0 0.00 0.03 0.03 84 1010.7
20260509011704 13 321 0.0 0.0 0.00 0.03 0.03 84 1010.6
20260509011202 13 338 0.0 0.0 0.00 0.03 0.03 84 1010.8
20260509010659 13 309 0.0 0.0 0.00 0.03 0.03 83 1010.8
20260509010155 13 328 0.0 0.0 0.00 0.03 0.03 83 1010.3
20260509005653 13 305 0.0 0.0 0.00 0.03 0.03 83 1010.7
20260509005150 13 324 0.0 0.0 0.00 0.03 0.03 82 1010.4
20260509004645 13 333 0.0 0.0 0.00 0.03 0.03 82 1010.4
20260509004142 13 314 0.0 0.0 0.00 0.03 0.03 81 1010.6
20260509003641 13 317 0.0 4.8 0.00 0.03 0.03 82 1010.5
20260509003138 13 319 0.0 0.0 0.00 0.03 0.03 81 1010.4
20260509002635 13 354 0.0 0.0 0.00 0.03 0.03 81 1010.5
20260509002132 14 297 1.6 4.8 0.00 0.03 0.03 81 1010.5
20260509001630 14 303 0.0 0.0 0.13 0.03 0.03 81 1010.4
20260509001125 15 305 0.0 0.0 0.13 0.03 0.03 80 1010.7
20260509000624 15 314 0.0 0.0 0.00 0.00 0.00 79 1010.3
20260509000120 15 324 0.0 0.0 0.00 0.00 0.00 79 1010.3
20260508235618 15 333 0.0 0.0 0.00 0.00 0.00 79 1010.4
20260508235114 15 334 0.0 0.0 0.00 0.00 0.00 77 1010.3
20260508234612 15 337 0.0 0.0 0.00 0.00 0.00 76 1010.2
20260508234108 16 338 0.0 0.0 0.00 0.00 0.00 75 1010.0
20260508233607 16 0 0.0 0.0 0.00 0.00 0.00 74 1010.2
20260508233104 16 345 0.0 0.0 0.00 0.00 0.00 74 1009.8
20260508232601 16 7 0.0 0.0 0.00 0.00 0.00 74 1009.9
20260508232058 16 2 0.0 0.0 0.00 0.00 0.00 73 1009.8
20260508231556 15 326 0.0 0.0 0.00 0.00 0.00 75 1010.0
20260508231052 16 324 0.0 0.0 0.00 0.00 0.00 74 1010.1
20260508230549 16 312 0.0 0.0 0.00 0.00 0.00 72 1010.1
20260508230046 16 306 0.0 0.0 0.00 0.00 0.00 73 1010.3
20260508225543 16 283 0.0 0.0 0.00 0.00 0.00 71 1010.1
20260508225040 16 310 0.0 0.0 0.00 0.00 0.00 69 1010.0
20260508224538 16 315 0.0 0.0 0.00 0.00 0.00 69 1010.1
20260508224035 16 315 0.0 0.0 0.00 0.00 0.00 68 1010.0
20260508223532 16 312 0.0 0.0 0.00 0.00 0.00 68 1010.1
20260508223029 17 318 0.0 0.0 0.00 0.00 0.00 67 1009.8
20260508222527 17 322 0.0 0.0 0.00 0.00 0.00 65 1009.8
20260508222024 17 319 0.0 0.0 0.00 0.00 0.00 66 1010.0
20260508221520 17 334 0.0 0.0 0.00 0.00 0.00 64 1010.0
20260508221016 17 351 0.0 0.0 0.00 0.00 0.00 61 1009.9
20260508220513 17 323 0.0 0.0 0.00 0.00 0.00 61 1010.1
20260508220009 17 323 0.0 0.0 0.00 0.00 0.00 61 1009.9
20260508215506 17 306 0.0 0.0 0.00 0.00 0.00 60 1010.1
20260508215003 17 308 0.0 0.0 0.00 0.00 0.00 61 1010.0
20260508214500 17 314 0.0 0.0 0.00 0.00 0.00 61 1010.0
20260508213955 17 306 0.0 0.0 0.00 0.00 0.00 58 1010.0
20260508213454 18 312 0.0 0.0 0.00 0.00 0.00 57 1009.8
20260508212949 18 265 0.0 0.0 0.00 0.00 0.00 56 1010.0
20260508212446 18 251 0.0 0.0 0.00 0.00 0.00 53 1010.1
20260508211942 18 227 0.0 0.0 0.00 0.00 0.00 58 1010.0
20260508211437 18 228 0.0 0.0 0.00 0.00 0.00 55 1010.1
20260508210935 18 248 0.0 0.0 0.00 0.00 0.00 57 1010.1
20260508210431 18 207 0.0 4.8 0.00 0.00 0.00 55 1010.0
20260508205927 18 233 0.0 0.0 0.00 0.00 0.00 56 1010.1
20260508205425 18 233 1.6 8.0 0.00 0.00 0.00 54 1010.2
20260508204921 18 242 0.0 0.0 0.00 0.00 0.00 55 1010.0
20260508204419 18 227 0.0 0.0 0.00 0.00 0.00 54 1010.2
20260508203914 18 243 0.0 0.0 0.00 0.00 0.00 54 1010.6
20260508203411 18 236 0.0 8.0 0.00 0.00 0.00 56 1010.6
20260508202906 18 253 4.8 9.7 0.00 0.00 0.00 53 1010.7
20260508202404 18 234 6.4 11.3 0.00 0.00 0.00 52 1010.7
20260508201901 18 243 6.4 9.7 0.00 0.00 0.00 51 1010.8
20260508201357 18 237 9.7 12.9 0.00 0.00 0.00 50 1010.8
20260508200854 18 235 11.3 12.9 0.00 0.00 0.00 49 1011.1
20260508200351 18 263 6.4 12.9 0.00 0.00 0.00 51 1011.0
20260508195846 18 201 8.0 11.3 0.00 0.00 0.00 50 1011.1
20260508195343 18 217 6.4 12.9 0.00 0.00 0.00 50 1011.2
20260508194839 18 211 11.3 12.9 0.00 0.00 0.00 50 1011.1
20260508194337 18 250 9.7 14.5 0.00 0.00 0.00 49 1011.3
20260508193834 18 235 14.5 17.7 0.00 0.00 0.00 49 1011.1
20260508193330 18 240 11.3 17.7 0.00 0.00 0.00 49 1011.4
20260508192827 18 247 14.5 20.9 0.00 0.00 0.00 49 1011.3
20260508192324 19 248 14.5 20.9 0.00 0.00 0.00 49 1011.1
20260508191821 19 237 8.0 12.9 0.00 0.00 0.00 52 1011.2
20260508191319 19 245 16.1 20.9 0.00 0.00 0.00 50 1011.4
20260508190815 18 236 9.7 14.5 0.00 0.00 0.00 52 1011.4
20260508190311 18 286 8.0 12.9 0.00 0.00 0.00 51 1011.4
20260508185808 19 230 14.5 20.9 0.00 0.00 0.00 50 1011.5
20260508185306 20 242 8.0 14.5 0.00 0.00 0.00 52 1011.6
20260508184802 20 232 12.9 17.7 0.00 0.00 0.00 49 1011.7
20260508184300 20 276 3.2 16.1 0.00 0.00 0.00 50 1011.7
20260508183756 20 226 8.0 14.5 0.00 0.00 0.00 51 1011.6
20260508183253 20 218 6.4 14.5 0.00 0.00 0.00 53 1011.7
20260508182749 20 234 9.7 16.1 0.00 0.00 0.00 50 1012.1
20260508182246 20 247 9.7 16.1 0.00 0.00 0.00 56 1012.1
20260508181741 20 230 11.3 16.1 0.00 0.00 0.00 52 1012.2
20260508181238 20 245 11.3 12.9 0.00 0.00 0.00 50 1012.2
20260508180735 19 254 14.5 16.1 0.00 0.00 0.00 54 1012.2
20260508180232 19 237 16.1 24.1 0.00 0.00 0.00 52 1012.2
20260508175729 18 225 17.7 20.9 0.00 0.00 0.00 50 1012.6
20260508175225 18 235 12.9 17.7 0.00 0.00 0.00 54 1012.6
20260508174723 18 243 16.1 20.9 0.00 0.00 0.00 52 1012.6
20260508174221 18 247 11.3 12.9 0.00 0.00 0.00 54 1012.8
20260508173716 18 250 14.5 16.1 0.00 0.00 0.00 51 1013.0
20260508173212 18 252 11.3 16.1 0.00 0.00 0.00 53 1013.0
20260508172710 18 227 6.4 12.9 0.00 0.00 0.00 54 1013.0
20260508172207 17 264 14.5 17.7 0.00 0.00 0.00 54 1013.0
20260508171703 17 259 8.0 16.1 0.00 0.00 0.00 55 1013.3
20260508171159 17 232 14.5 17.7 0.00 0.00 0.00 55 1013.1
20260508170656 17 264 8.0 16.1 0.00 0.00 0.00 56 1013.3
20260508170154 17 233 11.3 17.7 0.00 0.00 0.00 56 1013.5
20260508165651 17 247 14.5 25.7 0.00 0.00 0.00 53 1013.5
20260508165148 17 268 12.9 17.7 0.00 0.00 0.00 52 1013.7
20260508164644 17 213 16.1 24.1 0.00 0.00 0.00 53 1013.6
20260508164141 18 218 17.7 24.1 0.00 0.00 0.00 54 1013.6
20260508163639 18 231 14.5 20.9 0.00 0.00 0.00 53 1013.7
20260508163136 18 208 12.9 20.9 0.00 0.00 0.00 51 1013.9
20260508162632 18 212 17.7 24.1 0.00 0.00 0.00 52 1013.9
20260508162129 18 241 4.8 14.5 0.00 0.00 0.00 55 1013.9
20260508161626 18 239 9.7 16.1 0.00 0.00 0.00 54 1014.0
20260508161123 18 239 14.5 24.1 0.00 0.00 0.00 56 1013.9
20260508160621 18 218 12.9 17.7 0.00 0.00 0.00 52 1014.1
20260508160118 18 203 12.9 17.7 0.00 0.00 0.00 55 1014.0
20260508155610 18 257 9.7 17.7 0.00 0.00 0.00 57 1014.1
20260508155107 18 234 9.7 17.7 0.00 0.00 0.00 55 1014.2
20260508154604 17 235 16.1 24.1 0.00 0.00 0.00 53 1014.2
20260508154101 17 236 16.1 22.5 0.00 0.00 0.00 53 1014.1
20260508153558 17 263 16.1 22.5 0.00 0.00 0.00 54 1014.2
20260508153054 17 230 14.5 16.1 0.00 0.00 0.00 57 1014.2
20260508152551 17 202 19.3 24.1 0.00 0.00 0.00 54 1014.3
20260508152046 17 203 12.9 17.7 0.00 0.00 0.00 58 1014.5
20260508151543 17 198 12.9 16.1 0.00 0.00 0.00 55 1014.4
20260508151040 17 242 14.5 17.7 0.00 0.00 0.00 54 1014.4
20260508150538 17 217 12.9 17.7 0.00 0.00 0.00 58 1014.4
20260508150033 17 256 16.1 20.9 0.00 0.00 0.00 55 1014.5
20260508145530 17 224 17.7 32.2 0.00 0.00 0.00 55 1014.2
20260508145026 16 259 14.5 17.7 0.00 0.00 0.00 57 1014.5
20260508144524 16 229 22.5 27.4 0.00 0.00 0.00 53 1014.3
20260508144021 17 236 17.7 22.5 0.00 0.00 0.00 56 1014.7
20260508143519 16 223 8.0 16.1 0.00 0.00 0.00 59 1014.6
20260508143015 16 203 17.7 22.5 0.00 0.00 0.00 55 1014.6
20260508142513 16 217 14.5 17.7 0.00 0.00 0.00 55 1014.7
20260508142009 16 222 14.5 22.5 0.00 0.00 0.00 56 1014.5
20260508141505 16 214 14.5 17.7 0.00 0.00 0.00 58 1014.7
20260508141003 15 230 17.7 27.4 0.00 0.00 0.00 56 1014.9
20260508140500 15 231 14.5 20.9 0.00 0.00 0.00 58 1014.9
20260508135955 15 223 16.1 24.1 0.00 0.00 0.00 55 1015.1
20260508135452 15 225 14.5 25.7 0.00 0.00 0.00 57 1014.8
20260508134949 15 236 17.7 24.1 0.00 0.00 0.00 56 1014.8
20260508134445 15 221 17.7 20.9 0.00 0.00 0.00 57 1014.9
20260508133942 14 213 11.3 20.9 0.00 0.00 0.00 64 1015.0
20260508133439 13 193 9.7 12.9 0.00 0.00 0.00 66 1014.9
20260508132936 13 185 12.9 16.1 0.00 0.00 0.00 65 1015.1
20260508132434 13 206 11.3 12.9 0.00 0.00 0.00 64 1015.0
20260508131931 13 237 9.7 12.9 0.00 0.00 0.00 67 1015.0
20260508131426 12 214 8.0 12.9 0.00 0.00 0.00 67 1015.0
20260508130923 12 205 9.7 14.5 0.00 0.00 0.00 68 1015.1
20260508130420 12 210 11.3 16.1 0.00 0.00 0.00 67 1014.8
20260508125916 12 204 11.3 16.1 0.00 0.00 0.00 67 1015.1
20260508125412 11 219 9.7 11.3 0.00 0.00 0.00 70 1014.9
20260508124910 11 231 8.0 11.3 0.00 0.00 0.00 71 1014.9
20260508124407 11 199 9.7 11.3 0.00 0.00 0.00 70 1014.8
20260508123905 10 215 9.7 12.9 0.00 0.00 0.00 70 1014.8
20260508123403 10 194 8.0 12.9 0.00 0.00 0.00 72 1014.8
20260508122859 10 210 8.0 11.3 0.00 0.00 0.00 73 1014.7
20260508122356 10 212 8.0 11.3 0.00 0.00 0.00 74 1014.7
20260508121854 10 199 4.8 8.0 0.00 0.00 0.00 74 1014.5
20260508121352 9 209 6.4 9.7 0.00 0.00 0.00 74 1014.8
20260508120849 9 211 8.0 11.3 0.00 0.00 0.00 73 1014.9
20260508120347 9 203 4.8 8.0 0.00 0.00 0.00 75 1014.9
20260508115844 8 219 6.4 12.9 0.00 0.00 0.00 75 1014.6
20260508115341 8 214 6.4 9.7 0.00 0.00 0.00 74 1014.6
20260508114838 8 207 4.8 9.7 0.00 0.00 0.00 76 1014.6
20260508114335 8 209 8.0 11.3 0.00 0.00 0.00 76 1014.6
20260508113832 8 210 6.4 9.7 0.00 0.00 0.00 77 1014.7
20260508113330 7 207 6.4 8.0 0.00 0.00 0.00 78 1014.8
20260508112826 7 218 4.8 8.0 0.00 0.00 0.00 79 1014.5
20260508112323 7 217 4.8 4.8 0.00 0.00 0.00 79 1014.6
20260508111820 7 216 4.8 8.0 0.00 0.00 0.00 78 1014.4
20260508111317 7 219 4.8 8.0 0.00 0.00 0.00 78 1014.6
20260508110814 7 222 6.4 8.0 0.00 0.00 0.00 78 1014.4
20260508110312 7 225 4.8 8.0 0.00 0.00 0.00 78 1014.2
20260508105811 7 213 8.0 9.7 0.00 0.00 0.00 78 1014.4
20260508105308 7 232 6.4 9.7 0.00 0.00 0.00 77 1014.2
20260508104805 7 218 6.4 9.7 0.00 0.00 0.00 78 1014.1
20260508104302 7 217 4.8 9.7 0.00 0.00 0.00 77 1014.3
20260508103759 7 207 4.8 4.8 0.00 0.00 0.00 78 1014.5
20260508103256 7 217 4.8 8.0 0.00 0.00 0.00 78 1014.4
20260508102754 7 219 6.4 8.0 0.00 0.00 0.00 78 1014.2
20260508102252 7 215 4.8 8.0 0.00 0.00 0.00 78 1014.4
20260508101749 7 222 0.0 0.0 0.00 0.00 0.00 77 1014.2
20260508101246 7 213 0.0 0.0 0.00 0.00 0.00 77 1014.4
20260508100743 7 216 0.0 0.0 0.00 0.00 0.00 77 1014.5
20260508100241 7 223 0.0 0.0 0.00 0.00 0.00 77 1014.2
20260508095737 7 222 0.0 0.0 0.00 0.00 0.00 77 1014.3
20260508095235 7 192 0.0 0.0 0.00 0.00 0.00 76 1014.4
20260508094731 7 211 0.0 0.0 0.00 0.00 0.00 76 1014.5
20260508094228 7 212 0.0 0.0 0.00 0.00 0.00 75 1014.5
20260508093726 7 202 0.0 0.0 0.00 0.00 0.00 75 1014.4
20260508093224 7 210 0.0 0.0 0.00 0.00 0.00 75 1014.4
20260508092720 7 214 0.0 0.0 0.00 0.00 0.00 76 1014.5
20260508092218 7 247 0.0 0.0 0.00 0.00 0.00 77 1014.4
20260508091716 8 224 0.0 0.0 0.00 0.00 0.00 78 1014.3
20260508091213 7 227 0.0 0.0 0.00 0.00 0.00 77 1014.4
20260508090711 7 219 0.0 0.0 0.00 0.00 0.00 78 1014.4
20260508090208 7 209 0.0 0.0 0.00 0.00 0.00 79 1014.3
20260508085703 7 211 0.0 0.0 0.00 0.00 0.00 79 1014.5
20260508085201 7 205 0.0 0.0 0.00 0.00 0.00 79 1014.4
20260508084657 7 196 0.0 0.0 0.00 0.00 0.00 78 1014.3
20260508084155 7 206 0.0 0.0 0.00 0.00 0.00 77 1014.4
20260508083652 7 251 0.0 0.0 0.00 0.00 0.00 75 1014.5
20260508083149 7 337 0.0 0.0 0.00 0.00 0.00 74 1014.7
20260508082644 7 32 0.0 0.0 0.00 0.00 0.00 74 1014.5
20260508082141 7 30 0.0 0.0 0.00 0.00 0.00 75 1014.3
20260508081634 7 43 0.0 1.6 0.00 0.00 0.00 76 1014.8
20260508081130 7 324 0.0 0.0 0.00 0.00 0.00 73 1014.5
20260508080627 7 208 0.0 0.0 0.00 0.00 0.00 74 1014.3
20260508080125 7 218 1.6 3.2 0.00 0.00 0.00 74 1014.4
20260508075621 7 221 3.2 3.2 0.00 0.00 0.00 76 1014.2
20260508075118 7 215 3.2 4.8 0.00 0.00 0.00 76 1014.1
20260508074616 7 222 4.8 4.8 0.00 0.00 0.00 76 1014.4
20260508074113 7 220 4.8 8.0 0.00 0.00 0.00 76 1014.1
20260508073610 6 217 4.8 8.0 0.00 0.00 0.00 76 1014.3
20260508073108 6 212 3.2 4.8 0.00 0.00 0.00 76 1014.1
20260508072603 7 210 4.8 8.0 0.00 0.00 0.00 76 1014.2
20260508072101 7 220 4.8 4.8 0.00 0.00 0.00 76 1014.6
20260508071558 7 217 3.2 4.8 0.00 0.00 0.00 75 1014.3
20260508071056 7 216 4.8 8.0 0.00 0.00 0.00 75 1014.5
20260508070553 7 218 3.2 4.8 0.00 0.00 0.00 75 1014.4
20260508070052 7 224 4.8 4.8 0.00 0.00 0.00 75 1014.5
20260508065549 7 219 4.8 8.0 0.00 0.00 0.00 75 1014.3
20260508065047 7 221 6.4 8.0 0.00 0.00 0.00 74 1014.7